Location: Lombard
(41.8800°N, 88.0080°W)
Time: 05:36:04
(UTC-06:00)

Envisat - Visible Passes

Search period start: 29 November 2022 00:00
Search period end: 09 December 2022 00:00
Orbit: 763 x 765 km, 98.2° (Epoch: 29 November)

Date Brightness Start Highest point End Pass type
(mag) Time Alt. Az. Time Alt. Az. Time Alt. Az.
29 Nov 5.0 04:13:04 10° NNE 04:14:12 17° NNE 04:14:12 17° NNE visible
30 Nov 5.6 03:36:18 10° NNE 03:36:34 11° NNE 03:36:34 11° NNE visible
30 Nov 4.9 05:15:51 10° NNW 05:16:45 14° NNW 05:16:45 14° NNW visible
01 Dec 5.0 04:38:14 10° N 04:39:07 15° N 04:39:07 15° N visible
02 Dec 5.5 04:01:08 10° NNE 04:01:31 12° NNE 04:01:31 12° NNE visible
03 Dec 5.1 05:03:38 10° N 05:04:05 12° N 05:04:05 12° N visible
04 Dec 5.4 04:26:12 10° N 04:26:29 12° N 04:26:29 12° N visible
06 Dec 5.4 04:51:29 10° N 04:51:29 10° N 04:51:29 10° N visible
